Skip Page Navigation
NASA JPL Caltech
NASA Logo - Jet Propulsion Laboratory + View the NASA Portal
+ Center for Near-Earth Object Studies
JPL Home Earth Solar System Stars & Galaxies Technology
JPL Solar System Dynamics
BODIES ORBITS EPHEMERIDES TOOLS PHYSICAL DATA DISCOVERY FAQ SITE MAP
IMPORTANT: The SSD Announcement email list is now available. Major changes are coming in the near future, including possible hostname and/or URL changes. To be notified of such changes, subscribe to this email list.

Please visit this page for more details.


JPL Small-Body Database Browser
Search: [ help ]  
3376 Armandhammer (1982 UJ8)
Classification: Main-belt Asteroid          SPK-ID: 2003376
Ephemeris | Orbit Diagram | Orbital Elements | Mission Design | Physical Parameters | Discovery Circumstances ]

[ show orbit diagram ]
Orbital Elements at Epoch 2458600.5 (2019-Apr-27.0) TDB
Reference: JPL 32 (heliocentric ecliptic J2000)
 Element Value Uncertainty (1-sigma)   Units 
e .06604867543850595 4.479e-08  
a 2.349146840629967 9.3969e-09 au
q 2.193988803395807 1.0471e-07 au
i 6.347762667373254 4.542e-06 deg
node 250.0658859919075 3.8901e-05 deg
peri 328.4078627348264 5.0868e-05 deg
M 220.9932359053377 3.5297e-05 deg
tp 2459108.305156413004
(2020-Sep-15.80515641)
0.00013032 TDB
period 1315.114825521654
3.60
7.8909e-06
2.16e-08
d
yr
n .2737403556052242 1.6425e-09 deg/d
Q 2.504304877864127 1.0018e-08 au
  Orbit Determination Parameters
   # obs. used (total)      2050  
   data-arc span      24151 days (66.12 yr)  
   first obs. used      1953-09-16  
   last obs. used      2019-10-31  
   planetary ephem.      DE431  
   SB-pert. ephem.      SB431-N16  
   condition code      0  
   norm. resid. RMS      .43923  
   source      ORB  
   producer      Otto Matic  
   solution date      2019-Nov-07 02:25:26  

Additional Information
 Earth MOID = 1.18792 au 
 Jupiter MOID = 2.48479 au 
 T_jup = 3.548 
[ show covariance matrix ]

Ephemeris | Orbit Diagram | Orbital Elements | Mission Design | Physical Parameters | Discovery Circumstances ]

Physical Parameter Table
Parameter Symbol Value Units Sigma Reference Notes
absolute magnitude H 12.4   n/a MPO350828  
diameter diameter 7.894 km 0.150 urn:nasa:pds:neowise_diameters_albedos::2.0[mainbelt] (http://adsabs.harvard.edu/abs/2014ApJ...791..121M)  
rotation period rot_per 7.916 h n/a LCDB (Rev. 2019-January); Warner et al., 2009 Published Reference List:
[Pravec, P.; Wolf, M.; Sarounova, L. (2009) http://www.asu.cas.cz/~ppravec/neo.htm]
[Stephens, R.D. (2016) Minor Planet Bull. 43, 252-255.]
geometric albedo albedo 0.212   0.027 urn:nasa:pds:neowise_diameters_albedos::2.0[mainbelt] (http://adsabs.harvard.edu/abs/2012ApJ...759L...8M)  
SMASSII spectral type spec_B Sq   n/a EAR-A-5-DDR-TAXONOMY-V4.0 based on a high-resolution spectrum by Xu et al. (1995) or Bus and Binzel (2002)

3376 Armandhammer (1982 UJ8)          Discovered 1982-Oct-21 by Zhuravleva, L. at Nauchnyj
Reference: DISCOVERY.DBLast Updated: 2003-08-29

Alternate Designations
 1982 UJ8 = 1952 HP3 = 1975 XF1 = 1978 PJ4 = 1978 SZ1 = 1982 TN 
Ephemeris | Orbit Diagram | Orbital Elements | Mission Design | Physical Parameters | Discovery Circumstances ]
ABOUT SSD CREDITS/AWARDS PRIVACY/COPYRIGHT GLOSSARY LINKS
FirstGov
(server date/time)  
NASA Home Page
Site Manager:   Ryan S. Park
Webmaster  Alan B. Chamberlin